Weather History for Wenatchee, WA

Change the Weather History Date:

Friday, May 11, 2012

  Actual Average Record
Temperature  
Mean Temperature 44 °F 58 °F  
Max Temperature 61 °F 70 °F 92 °F (1993)
Min Temperature 26 °F 47 °F 32 °F (1985)
Degree Days  
Heating Degree Days 21 8  
Month to date heating degree days 202 98  
Since 1 July heating degree days 6671 5614  
Cooling Degree Days 0 1  
Month to date cooling degree days 0 7  
Year to date cooling degree days 0 45  
Growing Degree Days 2 (Base 50)    
Moisture  
Dew Point 23 °F    
Average Humidity 35    
Maximum Humidity 60    
Minimum Humidity 18    
Precipitation  
Precipitation 0.00 in 0.02 in 0.17 in (2004)
Month to date precipitation 0.62 0.18  
Year to date precipitation 9.80 3.15  
Snow  
Snow 0.00 in 0.00 in 0.00 in (2000)
Month to date snowfall 0.0 0.0  
Snow Depth 0.00 in    
Sea Level Pressure  
Sea Level Pressure 30.26 in    
Wind  
Wind Speed 6 mph (ESE)    
Max Wind Speed 10 mph    
Max Gust Speed -    
Visibility 10 miles    
Events      
T = Trace of Precipitation, MM = Missing Value Source: NWS Daily Summary

Daily Weather History Graph

Daily Weather History Graph

Search for Another Location

Airport:

Trip Planner

Search our weather history database for the weather conditions in past years. The results will help you decide how hot, cold, wet, or windy it might be!

Date:

Astronomy

May. 11, 2012 Rise Set
Actual Time 5:28 AM PDT 8:26 PM PDT
Civil Twilight 4:52 AM PDT 9:02 PM PDT
Nautical Twilight 4:06 AM PDT 9:49 PM PDT
Astronomical Twilight 3:11 AM PDT 10:45 PM PDT
Moon 1:05 AM PDT (5/11) 11:11 AM PDT (5/11)
Length of Visible Light 16h 09m
Length of Day
14h 58m
Waning Gibbous, 62% of the Moon is Illuminated
May 11
Waning Gibbous
May 12
Last Quarter
May 20
New
May 28
First Quarter
Jun 4
Full

Hourly Weather History & Observations

Time (PDT) Temp. Windchill Dew Point Humidity Pressure Visibility Wind Dir Wind Speed Gust Speed Precip Events Conditions
12:55 AM 44.1 °F 38.6 °F 24.1 °F 45% 30.28 in 10.0 mi NNW 10.4 mph - N/A   Clear
1:55 AM 43.0 °F 41.3 °F 25.0 °F 49% 30.29 in 10.0 mi WNW 3.5 mph - N/A   Clear
2:55 AM 43.0 °F 39.5 °F 25.0 °F 49% 30.29 in 10.0 mi NW 5.8 mph - N/A   Clear
3:55 AM 41.0 °F 37.1 °F 25.0 °F 53% 30.30 in 10.0 mi WNW 5.8 mph - N/A   Clear
4:55 AM 37.9 °F 33.5 °F 25.0 °F 60% 30.31 in 10.0 mi West 5.8 mph - N/A   Clear
5:55 AM 39.0 °F 33.4 °F 25.0 °F 57% 30.32 in 10.0 mi NNW 8.1 mph - N/A   Clear
6:55 AM 39.9 °F 35.8 °F 26.1 °F 58% 30.33 in 10.0 mi West 5.8 mph - N/A   Clear
7:55 AM 42.1 °F 37.7 °F 27.0 °F 55% 30.34 in 10.0 mi West 6.9 mph - N/A   Clear
8:55 AM 46.0 °F 41.9 °F 26.1 °F 46% 30.33 in 10.0 mi West 8.1 mph - N/A   Clear
9:55 AM 51.1 °F - 26.1 °F 38% 30.32 in 10.0 mi Calm Calm - N/A   Clear
10:55 AM 53.1 °F - 25.0 °F 34% 30.31 in 10.0 mi Calm Calm - N/A   Clear
11:55 AM 60.1 °F - 25.0 °F 26% 30.29 in 10.0 mi Calm Calm - N/A   Clear
12:55 PM 62.1 °F - 19.0 °F 19% 30.27 in 10.0 mi SSE 4.6 mph - N/A   Clear
1:55 PM 63.0 °F - 19.9 °F 19% 30.25 in 10.0 mi East 8.1 mph - N/A   Clear
2:55 PM 64.9 °F - 21.0 °F 19% 30.24 in 10.0 mi SE 9.2 mph - N/A   Clear
3:55 PM 64.9 °F - 21.0 °F 19% 30.22 in 10.0 mi SE 9.2 mph - N/A   Clear
4:55 PM 66.0 °F - 21.0 °F 18% 30.19 in 10.0 mi SE 8.1 mph - N/A   Clear
5:55 PM 66.0 °F - 21.0 °F 18% 30.18 in 10.0 mi ESE 5.8 mph - N/A   Clear
6:55 PM 64.0 °F - 21.9 °F 20% 30.17 in 10.0 mi ESE 6.9 mph - N/A   Clear
7:55 PM 62.1 °F - 21.0 °F 21% 30.18 in 10.0 mi ESE 8.1 mph - N/A   Clear
8:55 PM 55.0 °F - 24.1 °F 30% 30.19 in 10.0 mi East 9.2 mph - N/A   Clear
9:55 PM 54.0 °F - 23.0 °F 30% 30.21 in 10.0 mi East 8.1 mph - N/A   Clear
10:55 PM 53.1 °F - 23.0 °F 31% 30.21 in 10.0 mi Calm Calm - N/A   Clear
11:55 PM 53.1 °F - 21.9 °F 30% 30.22 in 10.0 mi Calm Calm - N/A   Clear